User: anonymous
Location: Meetinghouse Hill
(42.7686°N, 71.7752°W)
Time: 09:40:15
(UTC-04:00)
Language:

Iridium 34 - Orbit

View from above orbital plane
View from above orbital plane
View from above satellite
View from above satellite

Ground track
Ground track

The orbit data is extracted from the following two-line orbital elements,

1 24969U 97056E   14243.48518515  .00000234  00000-0  76464-4 0  9178
2 24969 086.3981 025.4334 0002165 111.1851 248.9576 14.34221264886237
Epoch (UTC): 31 August 2014 11:38:39
Eccentricity: 0.0002165
inclination: 86.3981°
perigee height: 776 km
apogee height: 779 km
right ascension of ascending node: 25.4334°
argument of perigee: 111.1851°
revolutions per day: 14.34221264
mean anomaly at epoch: 248.9576°
orbit number at epoch: 88623

The dashed part of the orbit path shows where the satellite is in the earth's shadow,  

DLR